Simultaneous Nadir Overpasses (SNOs) Predictions

Prediction of SNOs between METOP-B and TERRA Satellite Orbit:

Table of predicted SNOs for the next 14.0 days since TLE Epoch: 12/17/2012
Index Date (METOP-B) Time (METOP-B) Lat,Lon (METOP-B) SZA (METOP-B ) Date (TERRA) Time (TERRA) Lat,Lon (TERRA) SZA (TERRA ) Distance(km) Time Diff (sec)
1 12/18/2012 23:39:36 -81.27, 51.61 72.69 12/18/2012 23:40:19 -81.27, 51.58 72.68 0.51 43
2 12/19/2012 00:30:15 81.27,-140.70 107.36 12/19/2012 00:29:45 81.27,-140.66 107.35 0.61 30
3 12/21/2012 19:13:59 -81.26, 117.87 72.72 12/21/2012 19:14:32 -81.27, 118.03 72.69 2.78 33
4 12/21/2012 20:04:37 81.28, -74.04 107.37 12/21/2012 20:03:58 81.27, -74.23 107.33 3.21 39
5 12/24/2012 14:48:22 -81.27,-175.52 72.77 12/24/2012 14:48:46 -81.26,-175.64 72.78 2.33 24
6 12/24/2012 15:39:01 81.27, -7.81 107.27 12/24/2012 15:38:12 81.26, -7.93 107.23 2.36 49
7 12/27/2012 10:22:45 -81.27,-108.94 72.89 12/27/2012 10:22:59 -81.27,-109.08 72.90 2.41 14
8 12/27/2012 11:13:24 81.28, 58.78 107.16 12/27/2012 11:12:25 81.27, 58.60 107.11 3.09 59
9 12/30/2012 05:57:08 -81.27, -42.80 73.12 12/30/2012 05:57:11 -81.26, -42.66 73.10 2.34 3




NCC Satellite Simultaneous Nadir Overpasses (SNOs) Prediction Service
